Regional Weather Roundup
Issued by NWS

Home | Current Version | Previous Version | Graphics & Text | Print | Product List | Glossary On
Versions: 1 2 3 4 5 6 7 8 9 10 11 12 13 14 15 16 17 18 19 20 21 22 23 24 25 26 27 28 29 30 31 32 33 34 35 36 37 38 39 40 41 42 43 44 45 46 47 48 49 50
000
ASUS43 KIND 222009
RWRIN

WEATHER ROUNDUP FOR INDIANA
NATIONAL WEATHER SERVICE INDIANAPOLIS IN
400 PM EDT TUE APR 22 2014

NOTE: "FAIR" INDICATES FEW OR NO CLOUDS BELOW 12,000 FEET WITH NO
SIGNIFICANT WEATHER AND/OR OBSTRUCTIONS TO VISIBILITY.

* - STATION DOES NOT REPORT WEATHER SUCH AS PRECIPITATION OR FOG.

+ - STATION NOT QUALITY CONTROLLED BY THE NATIONAL WEATHER SERVICE.
    USE DATA WITH CAUTION...ESPECIALLY DEWPOINT AND RELATIVE
    HUMIDITY OBSERVATIONS.

INZ001>003-010>013-019-020-222100-
NORTHWEST INDIANA

CITY           SKY/WX    TMP DP  RH WIND       PRES   REMARKS
GARY /AIRPORT/ MOSUNNY   50  30  46 NE9G18    29.98S
LA PORTE +     SUNNY     48  31  51 N10G16    29.97S
MICHIGAN CITY+ SUNNY     46  30  53 N12       29.98S
MONTICELLO +   SUNNY     55  32  42 N14G21    29.94S
RENSSELAER +   SUNNY     54  32  43 N8        29.95F
VALPARAISO     SUNNY     50  30  46 N12       29.96F

$$

LMZ046-743>745-222100-
SOUTHERN LAKE MICHIGAN

STATION/POSITION TIME  TEMP WIND        PRES
                       AIR  DIR/SP/G
                 (UTC) (F)  (DEG/KT/KT) (MB)
MICHIGAN CITY    2000   40   20/ 13/ 15   N/A

$$

INZ004-005-014>016-021>024-222100-
NORTH CENTRAL INDIANA

CITY           SKY/WX    TMP DP  RH WIND       PRES   REMARKS
ELKHART        MOSUNNY   48  28  46 NW18G25   29.94S
GOSHEN         MOSUNNY   51  33  50 NW22      29.92R
LOGANSPORT +   SUNNY     54  30  40 NW12G23   29.94S
PERU/GRISSOM   SUNNY     55  33  43 NW20G29   29.92S
ROCHESTER +    SUNNY     54  32  43 NW14G25   29.94S
SOUTH BEND     MOSUNNY   50  31  48 N21G28    29.96S
WARSAW +       SUNNY     50  32  50 N16G24    29.92R

$$

INZ006>009-017-018-025>027-222100-
NORTHEAST INDIANA

CITY           SKY/WX    TMP DP  RH WIND       PRES   REMARKS
ANGOLA *+      PTSUNNY   52  34  50 NW21      29.86R
AUBURN +       SUNNY     54  32  43 NW18G26   29.87S
FORT WAYNE     MOSUNNY   54  32  43 NW18G28   29.87F

$$

INZ028-029-035-036-043>045-051>053-222100-
WEST CENTRAL INDIANA

CITY           SKY/WX    TMP DP  RH WIND       PRES   REMARKS
GREENCASTLE +  SUNNY     61  37  41 N12G20    29.92F
LAFAYETTE      SUNNY     57  34  41 N12G20    29.94S
TERRE HAUTE    SUNNY     65  38  36 NW15G21   29.93S

$$

INZ030>032-037>040-046>048-054>057-064-065-222100-
CENTRAL INDIANA

CITY           SKY/WX    TMP DP  RH WIND       PRES   REMARKS
ANDERSON       SUNNY     57  32  38 NW17G29   29.90F
CP ATTERBURY + SUNNY     63  34  34 NW16G22   29.90S
COLUMBUS       SUNNY     64  32  29 MISG      29.89F
INDIANAPOLIS   SUNNY     60  35  39 N16G26    29.91S
-EAGLE CREEK   SUNNY     58  34  40 N13G24    29.91S
KOKOMO *+      SUNNY     55  34  44 NW20G25   29.92S
MARION +       SUNNY     56  29  35 NW20G30   29.91S
MT COMFORT *+  SUNNY     59  37  44 NW16G23   29.90F
SHELBYVILLE    SUNNY     63  37  38 NW13G23   29.89S
ZIONSVILLE +   SUNNY     58  33  39 NW14      29.93S

$$

INZ033-034-041-042-049-050-058-059-222100-
EAST CENTRAL INDIANA

CITY           SKY/WX    TMP DP  RH WIND       PRES   REMARKS
MUNCIE         SUNNY     58  35  42 NW21G26   29.88F

$$

INZ060-061-067>069-081>083-085>088-222100-
SOUTHWEST INDIANA

CITY           SKY/WX    TMP DP  RH WIND       PRES   REMARKS
EVANSVILLE     SUNNY     70  42  36 N15G22    29.92F
HUNTINGBURG *+ SUNNY     66  45  45 N12       29.91F
WASHINGTON +   SUNNY     66  40  38 NW10G24   29.91F

$$

INZ062-063-066-070>080-084-089>092-222100-
SOUTH CENTRAL AND SOUTHEAST INDIANA

CITY           SKY/WX    TMP DP  RH WIND       PRES   REMARKS
BLOOMINGTON    SUNNY     66  34  30 VRB7      29.89F

$$




USA.gov is the U.S. government's official web portal to all federal, state and local government web resources and services.